Find Starlink 31699

NORAD ID: 59551 Int'l Des: 2024-074 Owner: SPXS Country: US Constellation: starlink operational
LEOCIRCULAR

リアルタイム位置

3D地球を読み込み中...

Starlink 31699について

説明を読み込み中...

次回通過

Passes for default location (London). Set your location on the main map for personalized predictions.

高度履歴

Loading altitude history...

軌道要素

1 59551U 24074T 26124.05806053 .00003577 00000-0 13938-3 0 9993
2 59551 43.0035 30.7099 0000791 313.3170 46.7616 15.27592770114488
Epoch: May 4, 2026 • Age: 11 hours

現在のステータス

高度 482.3 km
速度 7.63 km/s
衛星直下点 0.95°N, 19.03°W
打ち上げ日 Apr 18, 2024
運用期間 2 years
タイプ internet

技術仕様

分類 Payload
質量 730.00 kg
乾燥質量 700.00 kg
総質量 730.00 kg
長さ 0.30 m
直径 4.10 m
スパン 29.00 m
形状 Box + pan
製造者 SPXS
バスタイプ Starlink V2M
フェーズステータス In Orbit
所有者/国 SPXS/US

Most Searched